Weather History for Williams, AZ

Change the Weather History Date:

Friday, February 8, 2013

  Actual Average (KFLG) Record (KFLG)
Temperature  
Mean Temperature 32 °F 31 °F  
Max Temperature 39 °F 44 °F 65 °F (1996)
Min Temperature 26 °F 18 °F -17 °F (1933)
Degree Days  
Heating Degree Days 32 34  
Month to date heating degree days 272  
Since 1 July heating degree days 4188  
Cooling Degree Days 0 0  
Month to date cooling degree days 0  
Year to date cooling degree days 0  
Moisture  
Dew Point 20 °F    
Average Humidity 59    
Maximum Humidity 81    
Minimum Humidity 30    
Precipitation  
Precipitation 0.00 in 0.07 in 2.05 in (1993)
Month to date precipitation 0.57  
Year to date precipitation 2.62  
Snow  
Snow 0.00 in 0.80 in 12.90 in (2009)
Month to date snowfall 6.3  
Since 1 July snowfall 58.6  
Snow Depth -    
Sea Level Pressure  
Sea Level Pressure 29.86 in    
Wind  
Wind Speed 15 mph (South)    
Max Wind Speed 26 mph    
Max Gust Speed 43 mph    
Visibility 10 miles    
Events      
T = Trace of Precipitation, MM = Missing Value Source: NWS Daily Summary

Daily Weather History Graph

Daily Weather History Graph

Search for Another Location

Airport:

Trip Planner

Search our weather history database for the weather conditions in past years. The results will help you decide how hot, cold, wet, or windy it might be!

Date:

Astronomy

Feb. 08, 2013 Rise Set
Actual Time 7:21 AM MST 6:04 PM MST
Civil Twilight 6:55 AM MST 6:30 PM MST
Nautical Twilight 6:25 AM MST 7:00 PM MST
Astronomical Twilight 5:55 AM MST 7:30 PM MST
Moon 5:51 AM MST (2/8) 4:43 PM MST (2/8)
Length of Visible Light 11h 35m
Length of Day
10h 42m
Waning Crescent, 3% of the Moon is Illuminated
Feb 8
Waning Crescent
Feb 10
New
Feb 17
First Quarter
Feb 25
Full
Mar 4
Last Quarter

Hourly Weather History & Observations

Time (MST) Temp. Windchill Dew Point Humidity Pressure Visibility Wind Dir Wind Speed Gust Speed Precip Events Conditions
12:15 AM 35.6 °F 28.0 °F 28.4 °F 75% 30.05 in 10.0 mi SE 10.4 mph - N/A   Clear
12:35 AM 35.6 °F 28.6 °F 28.4 °F 75% 30.03 in 10.0 mi ESE 9.2 mph - N/A   Clear
12:55 AM 35.6 °F 29.9 °F 26.6 °F 70% 30.02 in 10.0 mi SE 6.9 mph - N/A   Clear
1:15 AM 35.6 °F 27.5 °F 26.6 °F 70% 30.01 in 10.0 mi SSE 11.5 mph 17.3 mph N/A   Clear
1:35 AM 37.4 °F 30.8 °F 23.0 °F 56% 30.00 in 10.0 mi South 9.2 mph - N/A   Clear
1:55 AM 37.4 °F 30.8 °F 24.8 °F 60% 29.99 in 10.0 mi SSE 9.2 mph - N/A   Clear
2:15 AM 35.6 °F 28.6 °F 26.6 °F 70% 29.99 in 10.0 mi South 9.2 mph 17.3 mph N/A   Unknown
2:35 AM 35.6 °F 26.2 °F 26.6 °F 70% 29.98 in 10.0 mi South 15.0 mph 21.9 mph N/A   Clear
2:55 AM 35.6 °F 25.9 °F 26.6 °F 70% 29.95 in 10.0 mi South 16.1 mph 19.6 mph N/A   Clear
3:15 AM 35.6 °F 26.6 °F 26.6 °F 70% 29.95 in 10.0 mi South 13.8 mph 20.7 mph N/A   Clear
3:35 AM 35.6 °F 25.9 °F 26.6 °F 70% 29.94 in 10.0 mi South 16.1 mph 23.0 mph N/A   Clear
3:55 AM 35.6 °F 25.9 °F 28.4 °F 75% 29.93 in 10.0 mi SSE 16.1 mph - N/A   Clear
4:15 AM 35.6 °F 25.2 °F 28.4 °F 75% 29.91 in 10.0 mi SSE 18.4 mph 24.2 mph N/A   Clear
4:55 AM 33.8 °F 23.5 °F 28.4 °F 81% 29.91 in 10.0 mi SSE 16.1 mph 23.0 mph N/A   Clear
5:15 AM 33.8 °F 23.2 °F 28.4 °F 81% 29.90 in 10.0 mi South 17.3 mph 26.5 mph N/A   Clear
5:35 AM 35.6 °F 25.2 °F 28.4 °F 75% 29.89 in 10.0 mi South 18.4 mph 26.5 mph N/A   Clear
5:55 AM 35.6 °F 25.5 °F 28.4 °F 75% 29.88 in 10.0 mi South 17.3 mph 26.5 mph N/A   Clear
6:15 AM 35.6 °F 24.8 °F 28.4 °F 75% 29.88 in 10.0 mi South 19.6 mph 26.5 mph N/A   Clear
6:35 AM 35.6 °F 25.9 °F 28.4 °F 75% 29.87 in 10.0 mi South 16.1 mph 28.8 mph N/A   Clear
6:55 AM 35.6 °F 26.2 °F 28.4 °F 75% 29.88 in 10.0 mi South 15.0 mph 21.9 mph N/A   Scattered Clouds
7:15 AM 35.6 °F 25.5 °F 28.4 °F 75% 29.88 in 10.0 mi SSE 17.3 mph 25.3 mph N/A   Mostly Cloudy
7:35 AM 35.6 °F 24.8 °F 26.6 °F 70% 29.88 in 10.0 mi SSE 19.6 mph 25.3 mph N/A   Mostly Cloudy
7:55 AM 35.6 °F 23.4 °F 26.6 °F 70% 29.87 in 10.0 mi South 25.3 mph 35.7 mph N/A   Mostly Cloudy
8:15 AM 37.4 °F 27.2 °F 26.6 °F 65% 29.86 in 10.0 mi South 19.6 mph 33.4 mph N/A   Overcast
8:35 AM 35.6 °F 24.8 °F 26.6 °F 70% 29.87 in 10.0 mi South 19.6 mph 32.2 mph N/A   Overcast
8:55 AM 35.6 °F 24.5 °F 24.8 °F 65% 29.87 in 10.0 mi South 20.7 mph 35.7 mph N/A   Mostly Cloudy
9:15 AM 35.6 °F 23.7 °F 24.8 °F 65% 29.87 in 10.0 mi South 24.2 mph 42.6 mph N/A   Overcast
9:35 AM 35.6 °F 23.7 °F 21.2 °F 56% 29.87 in 10.0 mi South 24.2 mph 33.4 mph N/A   Scattered Clouds
9:55 AM 37.4 °F 26.6 °F 23.0 °F 56% 29.87 in 10.0 mi South 21.9 mph 33.4 mph N/A   Scattered Clouds
10:15 AM 37.4 °F 26.6 °F 23.0 °F 56% 29.86 in 10.0 mi South 21.9 mph 39.1 mph N/A   Mostly Cloudy
10:35 AM 37.4 °F 25.9 °F 23.0 °F 56% 29.86 in 10.0 mi South 25.3 mph 38.0 mph N/A   Scattered Clouds
10:55 AM 37.4 °F 25.6 °F 23.0 °F 56% 29.86 in 10.0 mi South 26.5 mph 38.0 mph N/A   Partly Cloudy
11:15 AM 37.4 °F 25.6 °F 23.0 °F 56% 29.86 in 10.0 mi South 26.5 mph 36.8 mph N/A   Mostly Cloudy
11:35 AM 37.4 °F 27.5 °F 24.8 °F 60% 29.86 in 10.0 mi SSW 18.4 mph 32.2 mph N/A   Overcast
11:55 AM 35.6 °F 24.2 °F 24.8 °F 65% 29.86 in 10.0 mi SSW 21.9 mph 32.2 mph N/A   Overcast
12:15 PM 37.4 °F 26.4 °F 23.0 °F 56% 29.85 in 10.0 mi SW 23.0 mph 34.5 mph N/A   Mostly Cloudy
12:35 PM 37.4 °F 27.5 °F 23.0 °F 56% 29.84 in 10.0 mi SSW 18.4 mph 32.2 mph N/A   Mostly Cloudy
12:55 PM 37.4 °F 27.2 °F 21.2 °F 52% 29.83 in 10.0 mi SSW 19.6 mph 29.9 mph N/A   Mostly Cloudy
1:15 PM 37.4 °F 26.1 °F 19.4 °F 48% 29.82 in 10.0 mi SSW 24.2 mph 36.8 mph N/A   Mostly Cloudy
1:35 PM 37.4 °F 26.4 °F 19.4 °F 48% 29.81 in 10.0 mi SSW 23.0 mph 39.1 mph N/A   Mostly Cloudy
1:55 PM 37.4 °F 27.2 °F 17.6 °F 45% 29.81 in 10.0 mi SSW 19.6 mph 32.2 mph N/A   Overcast
2:15 PM 37.4 °F 26.9 °F 15.8 °F 41% 29.81 in 10.0 mi SSW 20.7 mph 36.8 mph N/A   Mostly Cloudy
2:35 PM 37.4 °F 25.9 °F 15.8 °F 41% 29.80 in 10.0 mi SSW 25.3 mph 34.5 mph N/A   Mostly Cloudy
2:55 PM 39.2 °F 28.0 °F 15.8 °F 39% 29.80 in 10.0 mi SSW 26.5 mph 36.8 mph N/A   Mostly Cloudy
3:15 PM 39.2 °F 28.5 °F 12.2 °F 33% 29.80 in 10.0 mi SSW 24.2 mph 36.8 mph N/A   Scattered Clouds
3:35 PM 37.4 °F 26.6 °F 14.0 °F 38% 29.80 in 10.0 mi SW 21.9 mph 35.7 mph N/A   Partly Cloudy
3:55 PM 37.4 °F 26.1 °F 12.2 °F 36% 29.80 in 10.0 mi SSW 24.2 mph 33.4 mph N/A   Partly Cloudy
4:15 PM 37.4 °F 27.2 °F 10.4 °F 33% 29.79 in 10.0 mi SSW 19.6 mph 28.8 mph N/A   Partly Cloudy
4:35 PM 37.4 °F 27.2 °F 8.6 °F 30% 29.80 in 10.0 mi SSW 19.6 mph 29.9 mph N/A   Clear
4:55 PM 35.6 °F 24.8 °F 6.8 °F 30% 29.80 in 10.0 mi SSW 19.6 mph 31.1 mph N/A   Clear
5:15 PM 32.0 °F 20.8 °F 6.8 °F 35% 29.80 in 10.0 mi SSW 17.3 mph 28.8 mph N/A   Clear
5:35 PM 33.8 °F 23.2 °F 8.6 °F 35% 29.80 in 10.0 mi SW 17.3 mph 26.5 mph N/A   Clear
5:55 PM 32.0 °F 21.2 °F 10.4 °F 41% 29.80 in 10.0 mi SW 16.1 mph 23.0 mph N/A   Clear
6:15 PM 32.0 °F 24.2 °F 10.4 °F 41% 29.81 in 10.0 mi SW 9.2 mph - N/A   Partly Cloudy
6:35 PM 30.2 °F 22.6 °F 12.2 °F 47% 29.81 in 10.0 mi SW 8.1 mph - N/A   Partly Cloudy
6:55 PM 30.2 °F 22.6 °F 12.2 °F 47% 29.81 in 10.0 mi SW 8.1 mph - N/A   Partly Cloudy
7:15 PM 28.4 °F 19.7 °F 14.0 °F 55% 29.82 in 10.0 mi SW 9.2 mph - N/A   Partly Cloudy
7:35 PM 28.4 °F 19.7 °F 14.0 °F 55% 29.82 in 10.0 mi SSW 9.2 mph - N/A   Clear
7:55 PM 28.4 °F 19.7 °F 14.0 °F 55% 29.81 in 10.0 mi South 9.2 mph - N/A   Clear
8:15 PM 26.6 °F 16.8 °F 14.0 °F 59% 29.81 in 10.0 mi South 10.4 mph - N/A   Clear
8:35 PM 26.6 °F 18.2 °F 14.0 °F 59% 29.80 in 10.0 mi SSW 8.1 mph - N/A   Clear
8:55 PM 26.6 °F 19.1 °F 14.0 °F 59% 29.81 in 10.0 mi South 6.9 mph - N/A   Clear
9:15 PM 26.6 °F 16.2 °F 15.8 °F 64% 29.80 in 10.0 mi South 11.5 mph - N/A   Mostly Cloudy
9:35 PM 28.4 °F 17.0 °F 14.0 °F 55% 29.80 in 10.0 mi South 15.0 mph 18.4 mph N/A   Overcast
9:55 PM 28.4 °F 18.0 °F 14.0 °F 55% 29.80 in 10.0 mi SSW 12.7 mph - N/A   Overcast
10:15 PM 28.4 °F 18.0 °F 15.8 °F 59% 29.79 in 10.0 mi South 12.7 mph 18.4 mph N/A   Overcast
10:35 PM 26.6 °F 16.2 °F 15.8 °F 64% 29.78 in 10.0 mi South 11.5 mph 18.4 mph N/A   Mostly Cloudy
10:55 PM 26.6 °F 16.2 °F 17.6 °F 69% 29.78 in 10.0 mi South 11.5 mph 18.4 mph N/A   Mostly Cloudy
11:15 PM 26.6 °F 16.2 °F 19.4 °F 74% 29.77 in 10.0 mi SSW 11.5 mph - N/A   Mostly Cloudy
11:55 PM 26.6 °F 17.5 °F 19.4 °F 74% 29.76 in 10.0 mi SSW 9.2 mph 17.3 mph N/A   Mostly Cloudy